Dublin, Ireland

6:39 AM GMT on November 18, 2017 (GMT +0000)
Dublin International

Weather History for EIDW - January, 2014

Change the Weather History Date:

Friday, January 24, 2014

  Actual Average Record
Temperature  
Mean Temperature 46 °F -  
Max Temperature 52 °F 46 °F 59 °F (2016)
Min Temperature 39 °F 36 °F 32 °F (2000)
Degree Days  
Heating Degree Days 20    
Moisture  
Dew Point 46 °F    
Average Humidity 95    
Maximum Humidity 100    
Minimum Humidity 86    
Precipitation  
Precipitation 0.12 in 0.07 in - ()
Sea Level Pressure  
Sea Level Pressure 29.71 in    
Wind  
Wind Speed 11 mph ()    
Max Wind Speed 22 mph    
Max Gust Speed -    
Visibility 6.1 miles    
Events Rain    
Averages and records for this station are not official NWS values.
T = Trace of Precipitation, MM = Missing Value Source: Averaged Metar Reports

Daily Weather History Graph

Daily Weather History Graph

Search for Another Location

Airport or City:

Trip Planner

Search our weather history database for the weather conditions in past years. The results will help you decide how hot, cold, wet, or windy it might be!

Date:

Astronomy

Jan. 24, 2014 Rise Set
Actual Time 8:22 AM GMT 4:52 PM GMT
Civil Twilight 7:42 AM GMT 5:31 PM GMT
Nautical Twilight 6:59 AM GMT 6:14 PM GMT
Astronomical Twilight 6:18 AM GMT 6:56 PM GMT
Moon 1:20 AM GMT (1/24) 11:13 AM GMT (1/24)
Length of Visible Light 9h 48m
Length of Day
8h 30m
Waning Gibbous, 47% of the Moon is Illuminated
Jan 24
Waning Gibbous
Jan 30
New
Feb 6
First Quarter
Feb 14
Full
Feb 22
Last Quarter

Hourly Weather History & Observations

Time (GMT) Temp. Windchill Dew Point Humidity Pressure Visibility Wind Dir Wind Speed Gust Speed Precip Events Conditions
12:00 AM 40 °F - 39 °F 94% 29.89 in 6 mi South 6.7 mph - - Rain Light Rain
12:00 AM 41.0 °F 36.4 °F 39.2 °F 93% 29.86 in 5.6 mi South 6.9 mph - N/A Rain Light Rain
12:30 AM 41.0 °F 36.4 °F 39.2 °F 93% 29.86 in 5.6 mi SE 6.9 mph - N/A Rain Rain
1:00 AM 40 °F - 39 °F 95% 29.85 in 5 mi SE 8.9 mph - - Rain Heavy Rain
1:00 AM 39.2 °F 33.6 °F 39.2 °F 100% 29.83 in 5.0 mi SE 8.1 mph - N/A Rain Rain
1:30 AM 39.2 °F 32.5 °F 39.2 °F 100% 29.80 in 5.0 mi SE 10.4 mph - N/A Rain Rain
2:00 AM 40 °F - 39 °F 96% 29.80 in 5 mi SE 11.2 mph - - Rain Heavy Rain
2:00 AM 41.0 °F 34.3 °F 39.2 °F 93% 29.77 in 5.0 mi SE 11.5 mph - N/A Rain Rain
2:30 AM 41.0 °F 32.8 °F 39.2 °F 93% 29.77 in 5.0 mi SE 16.1 mph - N/A Rain Light Rain
3:00 AM 41 °F - 40 °F 95% 29.76 in 5 mi SE 15.7 mph - - Rain Light Rain
3:00 AM 41.0 °F 33.1 °F 41.0 °F 100% 29.74 in 5.0 mi SE 15.0 mph - N/A Rain Light Rain
3:30 AM 41.0 °F 32.8 °F 41.0 °F 100% 29.71 in 6.2 mi SE 16.1 mph - N/A   Light Drizzle
4:00 AM 43 °F - 41 °F 89% 29.72 in 7 mi SSE 13.4 mph - - Rain Light Drizzle
4:00 AM 42.8 °F 35.8 °F 41.0 °F 93% 29.71 in 6.2 mi SSE 13.8 mph - N/A   Light Drizzle
4:30 AM 42.8 °F 35.8 °F 41.0 °F 93% 29.68 in 5.6 mi SE 13.8 mph - N/A Rain Light Rain
5:00 AM 43 °F - 42 °F 95% 29.69 in 6 mi SSE 15.7 mph - - Rain Light Rain
5:00 AM 42.8 °F 35.8 °F 42.8 °F 100% 29.65 in 5.6 mi SSE 13.8 mph - N/A Rain Light Rain
5:30 AM 44.6 °F 38.1 °F 42.8 °F 93% 29.65 in 6.2 mi SE 13.8 mph - N/A   Light Drizzle
6:00 AM 44 °F - 43 °F 94% 29.67 in 3 mi SE 11.2 mph - - Rain Light Rain
6:00 AM 44.6 °F 38.4 °F 42.8 °F 93% 29.65 in 3.1 mi SE 12.7 mph - N/A Rain Light Rain
6:30 AM 44.6 °F 39.7 °F 42.8 °F 93% 29.65 in 5.0 mi SE 9.2 mph - N/A Rain Light Rain
7:00 AM 44 °F - 44 °F 97% 29.67 in 4 mi SE 6.7 mph - - Rain Light Rain
7:00 AM 44.6 °F 40.7 °F 42.8 °F 93% 29.65 in 4.3 mi SE 6.9 mph - N/A Rain Light Rain
7:30 AM 44.6 °F 42.2 °F 44.6 °F 100% 29.65 in 4.3 mi South 4.6 mph - N/A Rain Light Rain
8:00 AM 45 °F - 45 °F 99% 29.66 in 11 mi South 4.5 mph - - Rain Light Rain
8:00 AM 44.6 °F 43.1 °F 44.6 °F 100% 29.65 in 6.2 mi Variable 3.5 mph - N/A   Mostly Cloudy
8:30 AM 48.2 °F - 48.2 °F 100% 29.65 in 6.2 mi Variable 3.5 mph - N/A   Mostly Cloudy
9:00 AM 48 °F - 48 °F 99% 29.69 in 12 mi SW 8.9 mph - - Rain Light Drizzle
9:00 AM 48.2 °F - 48.2 °F 100% 29.68 in 6.2 mi SW 8.1 mph - N/A   Mostly Cloudy
9:30 AM 48.2 °F - 48.2 °F 100% 29.68 in - SW 9.2 mph - N/A   Light Drizzle
10:00 AM 49 °F - 49 °F 99% 29.70 in 2 mi WSW 13.4 mph - - Rain Light Drizzle
10:00 AM 50.0 °F - 48.2 °F 94% 29.68 in 2.2 mi WSW 12.7 mph - N/A   Mostly Cloudy
10:30 AM 50.0 °F - 50.0 °F 100% 29.68 in 2.2 mi SW 10.4 mph - N/A   Light Drizzle
11:00 AM 50 °F - 49 °F 96% 29.71 in 2 mi SW 11.2 mph - - Rain Light Drizzle
11:00 AM 50.0 °F - 50.0 °F 100% 29.68 in - SW 10.4 mph - N/A   Light Drizzle
11:30 AM 50.0 °F - 50.0 °F 100% 29.68 in 5.6 mi SW 9.2 mph - N/A Rain Light Rain
12:00 PM 51 °F - 50 °F 95% 29.69 in 16 mi SW 8.9 mph - - Rain Light Rain
12:00 PM 50.0 °F - 50.0 °F 100% 29.68 in 6.2 mi SW 9.2 mph - N/A Rain Light Rain
12:30 PM 51.8 °F - 50.0 °F 94% 29.68 in 6.2 mi SSW 10.4 mph - N/A Rain Light Rain
1:00 PM 51 °F - 51 °F 98% 29.68 in 4 mi SW 13.4 mph - - Rain Light Rain
1:00 PM 51.8 °F - 50.0 °F 94% 29.65 in 4.3 mi SW 11.5 mph - N/A Rain Light Rain
1:30 PM 51.8 °F - 50.0 °F 94% 29.65 in 4.3 mi SW 13.8 mph - N/A Rain Light Rain
2:00 PM 52 °F - 51 °F 95% 29.66 in 9 mi SW 13.4 mph - - Rain Light Rain
2:00 PM 51.8 °F - 51.8 °F 100% 29.65 in 6.2 mi SW 13.8 mph - N/A Rain Light Rain
2:30 PM 51.8 °F - 50.0 °F 94% 29.65 in 5.0 mi SW 17.3 mph - N/A Rain Light Rain
3:00 PM 52 °F - 51 °F 95% 29.66 in 5 mi WSW 17.9 mph - - Rain Light Rain
3:00 PM 51.8 °F - 51.8 °F 100% 29.65 in 5.0 mi WSW 18.4 mph - N/A Rain Light Rain
3:30 PM 51.8 °F - 51.8 °F 100% 29.65 in 6.2 mi WSW 16.1 mph - N/A Rain Light Rain
4:00 PM 52 °F - 51 °F 95% 29.66 in 9 mi WSW 17.9 mph - - Rain Light Rain
4:00 PM 51.8 °F - 51.8 °F 100% 29.65 in 6.2 mi WSW 17.3 mph - N/A Rain Light Rain
4:30 PM 51.8 °F - 51.8 °F 100% 29.65 in 3.1 mi WSW 18.4 mph - N/A Rain Light Rain
5:00 PM 52 °F - 51 °F 95% 29.68 in 5 mi WSW 17.9 mph - - Rain Light Drizzle
5:00 PM 51.8 °F - 51.8 °F 100% 29.65 in 5.0 mi WSW 18.4 mph - N/A   Light Drizzle
5:30 PM 51.8 °F - 51.8 °F 100% 29.68 in 5.0 mi WSW 16.1 mph - N/A   Light Drizzle
6:00 PM 52 °F - 51 °F 94% 29.69 in 5 mi WSW 20.1 mph - - Rain Light Drizzle
6:00 PM 51.8 °F - 50.0 °F 94% 29.68 in 5.0 mi WSW 20.7 mph - N/A   Light Drizzle
6:30 PM 51.8 °F - 50.0 °F 94% 29.68 in 6.2 mi WSW 21.9 mph - N/A   Light Drizzle
7:00 PM 51 °F - 49 °F 90% 29.72 in 11 mi WSW 17.9 mph - - Rain Light Drizzle
7:00 PM 51.8 °F - 48.2 °F 88% 29.71 in 6.2 mi WSW 19.6 mph - N/A   Mostly Cloudy
7:30 PM 50.0 °F - 48.2 °F 94% 29.71 in 6.2 mi WSW 16.1 mph - N/A   Mostly Cloudy
8:00 PM 50 °F - 47 °F 87% 29.74 in 12 mi WSW 17.9 mph - -   Overcast
8:00 PM 50.0 °F - 48.2 °F 94% 29.71 in 6.2 mi WSW 17.3 mph - N/A   Mostly Cloudy
8:30 PM 48.2 °F - 46.4 °F 93% 29.74 in 6.2 mi WSW 20.7 mph - N/A   Mostly Cloudy
9:00 PM 49 °F - 46 °F 86% 29.77 in 12 mi WSW 15.7 mph - -   Partly Cloudy
9:00 PM 48.2 °F - 46.4 °F 93% 29.74 in 6.2 mi WSW 16.1 mph - N/A   Mostly Cloudy
9:30 PM 48.2 °F - 46.4 °F 93% 29.77 in 6.2 mi WSW 13.8 mph - N/A   Mostly Cloudy
10:00 PM 48 °F - 45 °F 87% 29.79 in 12 mi WSW 13.4 mph - -   Mostly Cloudy
10:00 PM 48.2 °F - 44.6 °F 87% 29.77 in 6.2 mi WSW 11.5 mph - N/A   Mostly Cloudy
10:30 PM 48.2 °F - 44.6 °F 87% 29.80 in 6.2 mi WSW 12.7 mph - N/A   Mostly Cloudy
11:00 PM 48 °F - 45 °F 86% 29.82 in 12 mi WSW 15.7 mph - -   Overcast
11:00 PM 48.2 °F - 44.6 °F 87% 29.80 in 6.2 mi WSW 15.0 mph - N/A   Mostly Cloudy
11:30 PM 48.2 °F - 44.6 °F 87% 29.80 in 6.2 mi WSW 13.8 mph - N/A   Mostly Cloudy